Regional Weather Roundup
Issued by NWS

Home | Current Version | Previous Version | Text Only | Print | Product List | Glossary On
Versions: 1 2 3 4 5 6 7 8 9 10 11 12 13 14 15 16 17 18 19 20 21 22 23 24 25 26 27 28 29 30 31 32 33 34 35 36 37 38 39 40 41 42 43 44 45 46 47 48 49 50
000
ASUS44 KJAN 051010
RWRMS

MISSISSIPPI HOURLY WEATHER ROUNDUP
NATIONAL WEATHER SERVICE JACKSON MS
500 AM CDT TUE MAY 05 2015

NOTE: "FAIR: INDICATES FEW OR NO CLOUDS BELOW 12,000 FEET WITH NO
SIGNIFICANT WEATHER AND/OR OBSTRUCTIONS TO VISIBILITY.

MSZ001>002-007>008-010>013-018>021-025>028-034>036-051100-
NORTHWEST MISSISSIPPI

CITY           SKY/WX    TMP DP  RH WIND       PRES   REMARKS
CLARKSDALE     FAIR      64  59  82 CALM      30.20S
CLEVELAND      PTSUNNY   67  63  86 SE6       30.19R
GREENWOOD      CLEAR     62  56  80 CALM      30.20R
GREENVILLE     CLOUDY    68  61  78 SE6       30.17R
OLIVE BRANCH   CLOUDY    64  55  72 S6        30.20S
OXFORD         LGT RAIN  63  54  72 SE6       30.23S
TUNICA         SUNNY     63  55  77 S7        30.19S
$$

MSZ003>006-009-014>017-022>024-029>033-037>039-051100-
NORTHEAST MISSISSIPPI

CITY           SKY/WX    TMP DP  RH WIND       PRES   REMARKS
COLUMBUS AFB   CLEAR     55  49  81 CALM      30.23R
GOLDN TRIANGLE   N/A     57  54  88 E3        30.22R
STARKVILLE     FAIR      54  54 100 CALM      30.22S
TUPELO         CLEAR     57  54  89 CALM      30.23R
$$

MSZ040-058-051100-
CENTRAL MISSISSIPPI

CITY           SKY/WX    TMP DP  RH WIND       PRES   REMARKS
JACKSON INTL   CLEAR     59  57  93 CALM      30.19R
JACKSON HAWKNS CLEAR     62  59  90 CALM      30.19R
MERIDIAN KEY   CLEAR     54  52  93 CALM      30.21S
MERIDIAN NAS   CLEAR     56  52  86 CALM      30.22S
RAYMOND        FAIR      59  54  82 CALM      30.18S HAZE
VICKSBURG      CLEAR     63  61  93 SE7       30.17R
$$

MSZ059>079-051100-
SOUTH MISSISSIPPI

CITY           SKY/WX    TMP DP  RH WIND       PRES   REMARKS
BROOKHAVEN     FAIR      61  61 100 CALM      30.19R
HATTIESBURG    CLEAR     56  53  90 CALM      30.19S
MCCOMB         CLEAR     63  61  93 E7        30.16S
NATCHEZ        CLEAR     63  59  88 CALM      30.16R
PINE BELT      CLEAR     57  54  88 N3        30.19S
$$

MSZ080>082-051100-
COASTAL MISSISSIPPI

CITY           SKY/WX    TMP DP  RH WIND       PRES   REMARKS
BILOXI         CLEAR     64  61  93 E6        30.16R
PASCAGOULA     CLEAR     57  56  96 CALM      30.17S FOG
GULFPORT       CLEAR     64  60  87 CALM      30.15S
$$


USA.gov is the U.S. government's official web portal to all federal, state and local government web resources and services.